Starlink 5562

operational
NORAD ID: 56336 Int'l Des: 2023-058 Owner: SPXS Country: US Constellation: starlink
LEOCIRCULARRETROGRADESSO

Über Starlink 5562

Beschreibung wird geladen...

Live-Position

3D-Globus wird geladen...

Nächste Überflüge

Höhenverlauf

Altitude vs Time

uPlot chart will show altitude changes over time

Zweizeiliger Elementsatz

1 56336U 23058V 25352.47411017 .00001001 00000-0 82464-4 0 9993
2 56336 97.6040 350.6733 0002773 80.4884 279.6654 15.01252493145943
Epoch: 18. Dez. 2025 • Age: 15 hours

Aktueller Status

Höhe 574.0 km
Geschwindigkeit 7.58 km/s
Subsatellitenpunkt 74.31°N, 78.01°E
Startdatum 27. Apr. 2023
Alter 2.6 years
Typ internet

Technische Details

Klassifizierung Payload
Masse 300.00 kg
Trockenmasse 260.00 kg
Gesamtmasse 300.00 kg
Länge 0.20 m
Durchmesser 2.80 m
Spannweite 9.00 m
Form Box + pan
Hersteller SPXS
Bus-Typ Starlink
Phasenstatus In Orbit
Besitzer/Staat SPXS/US

Große Konstellationen

Loading constellations...